STARLINK-32297, 61521

Orbit data source: Space-Track

STARLINK-32297, 61521 is a payload satellite owned by SpaceX/Seattle (US) in LEO that was launched on Tue, 15 Oct 2024 UTC via an FALCON 9 launch vehicle from the Air Force Eastern Test Range (AFETR). Payload-class satellites include a variety of spacecraft equipped with specific instruments for various scientific and technological missions. These include communications satellites like Starlink; space stations such as the ISS; scientific satellites like the Hubble; Earth observation satellites from companies like Planet Labs, Umbra, and HawkEye 360; GPS; miniature CubeSats for education and research; and military/defense satellites.

Loading next visibility...
Identifier
61521, 2024-183N
Orbit
LEO
Country
Flag of USUS
Related business
Manufacturer
SpaceX/Seattle
Mission
Operational Commercial Communications
Bus & Motor
STARLINK V2M, Unknown motor
Mass
730 kg wet, ~700 kg dry
Launch date (UTC)
2024-10-15 (2 years ago)
Launch vehicle
FALCON 9
Launch site
Air Force Eastern Test Range (AFETR)
Object type
Payload
Rocket body
Debris
Shape & HBR
Box + 2 Pan, 17.7 m
Radar Cross Section
33.884 m², Large (>1 m²)

Expand to show TLE details & history
Last TLE update: 1 day ago

TLE from 1 day ago
0 STARLINK-32297
1 61521U 24183N   26170.89383933 -.00005843  00000-0 -18560-3 0  9990
2 61521  53.1609  27.4759 0001195 136.2279 223.8817 15.30151051 95301
Epoch: 2026-06-19T21:27Z
TLE epoch observation values (Epoch: 2026-06-19T21:27:07.718Z)
Latitude
0.00003°
Longitude
157.57749°
Altitude
476.851 km
Speed
7.628 km/s
True Right ascension
01h 49m 54s
True Declination
0° 00' 00"
Sunlit
Object was in daylight at epoch
Visualization orbit readout
Latitude
Unknown
Longitude
Unknown
Altitude
Unknown
Speed
Unknown
Apparent Right ascension
Unknown
Apparent Declination
Unknown
Sunlit
N/A
Visualization observer readout
Local Sidereal Time
10:20:27
Azimuth
Unknown
Elevation
Unknown
Doppler factor
Unknown
Orbital elements
Apogee altitude
476.437 km
Perigee altitude
474.798 km
Semi-major axis
6,853.755 km
Eccentricity
0.00012
Inclination
53.1609°
RAAN
27.4759°
Arg. of periapsis
136.2279°
True anomaly
223.87221°
Mean anomaly
223.8817°
Eccentric anomaly
223.87695°
Mean motion
3.82517 °/min
Orbital period
94.11 mins
BSTAR
-0.0001856
Loading maneuver chart data...
Computing Atmospheric mass density...
Loading historical data...
Loading historical data...
Loading historical data...
Loading historical data...
Loading historical data...
Loading historical data...
Loading historical data...

Documentation

Showing up to 5 results
|